[[{"header":{"parameterUnit":"m.s-1","parameterCategory":1,"la1":30.2991,"la2":30.254,"lo1":-89.0895,"lo2":-89.0444,"dy":0.0017,"dx":0.0017,"nx":28,"ny":28,"refTime":"2025-05-16T09:00:00:Z","depth":0,"parameterNumber":2,"parameterNumberName":"U-component_of_WINDS"},"data":[0,0,0,0,0,0,0,0,0,0,0,0,0,0,0,0,0,0,0,0,0,0,0,0,0,0,0,0,0,0,0,0,0,0,0,0,0,0,0,0,0,0,0,0,0,0,0,0,0,0,0,0,0,0,0,0,0,0,2.2333,2.2333,0,2.2393,2.2394,2.2395,2.2366,2.2365,2.2363,2.2362,2.2422,2.2424,2.2427,0,0,0,0,0,0,0,0,0,0,0,0,0,2.219,2.2193,2.2333,2.2333,2.2334,2.2393,2.2394,2.2395,2.2366,2.2364,2.2363,2.2361,2.2421,2.2424,2.2428,0,0,0,0,0,0,0,0,0,0,0,0,0,2.2251,2.2194,2.2333,2.2327,2.2327,2.2393,2.2394,2.2395,2.2367,2.2364,2.2362,2.236,2.2419,2.2424,2.2428,2.2502,0,0,2.2442,2.2444,0,0,0,0,0,0,0,0,2.2248,2.2256,2.2327,2.2328,2.2328,2.237,2.2365,2.2431,2.2367,2.2352,2.2362,2.2359,2.2406,2.2411,2.2428,2.2505,2.2507,2.2442,2.2445,2.2447,2.2448,0,0,0,0,0,0,0,2.2244,2.2254,2.2357,2.2328,2.2329,2.2321,2.2327,2.2378,2.2391,2.2353,2.2351,2.2359,2.2406,2.2424,2.2429,2.2508,2.2442,2.2446,2.2449,2.2451,2.2647,2.2649,0,0,0,0,0,0,2.224,2.225,2.2355,2.2358,2.2281,2.2325,2.2332,2.2359,2.239,2.2393,2.2361,2.2357,2.2417,2.2424,2.2431,2.2518,2.2447,2.2451,2.2454,2.2644,2.2647,2.265,0,0,0,0,0,0,2.2237,2.2249,2.2352,2.2304,2.2316,2.233,2.236,2.2361,2.2379,2.2396,2.2398,2.2376,2.2415,2.2425,2.2484,2.252,2.2453,2.2457,2.2642,2.2645,2.2649,2.2694,0,0,0,0,0,0,2.2233,2.2248,2.2277,2.2305,2.2319,2.2405,2.2362,2.2364,2.2387,2.2383,2.2412,2.2414,2.2414,2.2478,2.2489,2.2525,2.2461,2.2638,2.2643,2.2648,2.2689,2.2699,2.2707,0,0,0,0,0,2.2228,2.2288,2.2279,2.2292,2.2356,2.2408,2.2416,2.2415,2.239,2.2418,2.2429,2.2413,2.2514,2.2484,2.2496,2.2534,2.2636,2.2642,2.2647,2.2685,2.2697,2.2707,0,0,0,0,0,0,2.2263,2.2291,2.2282,2.2352,2.2378,2.2403,2.2439,2.2428,2.246,2.2455,2.2453,2.246,2.2521,2.2534,2.2499,2.2607,2.2571,2.258,2.2596,2.2607,2.2616,2.2611,2.2465,0,0,0,0,0,2.228,2.232,2.2342,2.2402,2.2415,2.2425,2.2448,2.2445,2.2471,2.2482,2.2497,2.2522,2.2559,2.2584,2.262,2.2691,2.2696,2.2723,2.2732,2.2739,2.2746,2.2784,2.2795,2.2669,2.2669,2.2668,0,0,2.2313,2.2333,2.2359,2.241,2.2429,2.247,2.2434,2.248,2.251,2.2488,2.2545,2.2558,2.2585,2.2651,2.2681,2.2663,2.2782,2.2746,2.2752,2.2755,2.2791,2.2802,2.2813,2.2672,2.2672,2.2671,0,0,2.2395,2.2415,2.2467,2.2487,2.2517,2.2523,2.2535,2.2562,2.2569,2.2627,2.2611,2.2646,2.2711,2.2731,2.275,2.2839,2.2825,2.285,2.2896,2.2932,2.2942,2.2951,2.2981,2.2993,2.2857,2.2858,2.2858,0,2.2433,2.2495,2.2495,2.2541,2.2563,2.2546,2.2598,2.2617,2.2657,2.2672,2.2652,2.2732,2.275,2.282,2.2841,2.2857,2.287,2.2847,2.2941,2.295,2.2958,2.2987,2.2999,2.286,2.286,2.286,2.286,0,2.2539,2.2583,2.2621,2.266,2.2686,2.2735,2.2741,2.2767,2.2763,2.277,2.2828,2.2849,2.2887,2.2904,2.2899,2.2972,2.296,2.2941,2.2905,2.2973,2.3,2.3011,2.2865,2.2864,2.2863,2.2862,0,0,2.2645,2.2683,2.2697,2.2714,2.2746,2.2779,2.2826,2.2865,2.2887,2.2915,2.2953,2.3008,2.299,2.3012,2.3009,2.3042,2.3109,2.3018,2.3019,2.3033,2.3189,2.3202,2.3215,2.31,2.3102,2.3104,2.3186,0,2.2729,2.2812,2.2813,2.289,2.2929,2.2913,2.2954,2.2977,2.2985,2.3019,2.3028,2.3066,2.304,2.3053,2.3084,2.3094,2.314,2.3088,2.3135,2.3136,2.3127,2.323,2.3244,2.3321,2.3197,2.3198,2.32,0,2.2837,2.2869,2.2949,2.2974,2.2991,2.3028,2.3062,2.3095,2.3121,2.3124,2.3148,2.314,2.3187,2.3151,2.3215,2.318,2.3198,2.3206,2.3209,2.3213,2.3171,2.3235,2.3345,2.3356,2.3217,2.3215,2.3214,0,2.2904,2.2967,2.3023,2.3039,2.307,2.3096,2.311,2.3133,2.3156,2.3186,2.32,2.3235,2.3254,2.3281,2.3282,2.3256,2.3346,2.331,2.3349,2.3349,2.3368,2.3367,2.3483,2.3383,2.3382,2.3382,2.3382,0,2.2997,2.3046,2.3054,2.3088,2.3143,2.3143,2.3197,2.3208,2.3229,2.3264,2.3253,2.3286,2.3287,2.3321,2.3322,2.3374,2.3383,2.3386,2.3386,2.3387,2.3386,2.3398,2.3392,2.3385,2.3385,2.3384,2.3383,0,2.3081,2.3088,2.3148,2.3173,2.318,2.3219,2.3239,2.3271,2.3278,2.3323,2.3334,2.3345,2.3384,2.3388,2.3434,2.3435,2.3497,2.3491,2.3488,2.3487,2.3525,2.3521,2.3652,2.3668,2.3559,2.356,2.3561,0,2.3138,2.3176,2.3205,2.3228,2.3244,2.3281,2.3304,2.3305,2.3329,2.3361,2.3389,2.3427,2.3457,2.352,2.3531,2.3566,2.356,2.3604,2.3565,2.3565,2.3559,2.3557,2.356,2.3611,2.3612,2.3613,2.3614,0,2.324,2.3241,2.3276,2.3311,2.3339,2.3367,2.3393,2.3412,2.3416,2.3444,2.3484,2.3507,2.3554,2.3591,2.3625,2.3638,2.3626,2.3626,2.3637,2.3637,2.3633,2.3635,2.3507,2.3623,2.3622,2.3621,2.3621,2.362,2.3311,2.3344,2.3369,2.3407,2.3427,2.3451,2.3482,2.3493,2.3527,2.3565,2.3563,2.3607,2.363,2.3675,2.369,2.3724,2.3709,2.3725,2.3729,2.3732,2.3735,2.3629,2.373,2.373,2.373,2.3729,2.3729,0,2.3411,2.3426,2.3461,2.3498,2.3528,2.3515,2.3543,2.3568,2.3607,2.3631,2.3661,2.3706,2.3742,2.3756,2.3791,2.3815,2.381,2.3824,2.3821,2.3824,2.3747,2.3734,2.3827,2.3827,2.3827,2.3827,2.3827,2.3827,2.3466,2.352,2.3524,2.3587,2.3602,2.3645,2.3662,2.3684,2.3702,2.3754,2.3784,2.3793,2.3812,2.3848,2.388,2.3883,2.3896,2.3912,2.3913,2.384,2.383,2.3821,2.3808,2.3915,2.3915,2.3987,2.3988,2.3988]},{"header":{"parameterUnit":"m.s-1","parameterCategory":1,"la1":30.2991,"la2":30.254,"lo1":-89.0895,"lo2":-89.0444,"dy":0.0017,"dx":0.0017,"nx":28,"ny":28,"refTime":"2025-05-16T09:00:00:Z","depth":0,"parameterNumber":3,"parameterNumberName":"V-component_of_WINDS"},"data":[0,0,0,0,0,0,0,0,0,0,0,0,0,0,0,0,0,0,0,0,0,0,0,0,0,0,0,0,0,0,0,0,0,0,0,0,0,0,0,0,0,0,0,0,0,0,0,0,0,0,0,0,0,0,0,0,0,0,5.3767,5.3769,0,5.3927,5.3929,5.3931,5.3923,5.392,5.3918,5.3916,5.4072,5.4078,5.4085,0,0,0,0,0,0,0,0,0,0,0,0,0,5.3445,5.3451,5.3767,5.3769,5.3771,5.3927,5.3929,5.3931,5.3923,5.392,5.3918,5.3915,5.407,5.4078,5.4085,0,0,0,0,0,0,0,0,0,0,0,0,0,5.3593,5.3453,5.3766,5.3786,5.3789,5.3927,5.3929,5.3932,5.3924,5.392,5.3917,5.3914,5.4068,5.4077,5.4086,5.4213,0,0,5.4115,5.4119,0,0,0,0,0,0,0,0,5.3585,5.3605,5.3781,5.3785,5.3789,5.3902,5.3873,5.4026,5.3925,5.3872,5.3916,5.3912,5.4018,5.4031,5.4068,5.422,5.4227,5.4116,5.4122,5.4126,5.4128,0,0,0,0,0,0,0,5.3575,5.3598,5.383,5.3783,5.3788,5.3784,5.3801,5.3902,5.3962,5.3877,5.3876,5.3896,5.4019,5.4059,5.4072,5.4229,5.4116,5.4124,5.413,5.4134,5.4492,5.4495,0,0,0,0,0,0,5.3561,5.3589,5.3825,5.3835,5.3676,5.3792,5.3812,5.3869,5.3961,5.3972,5.3899,5.3895,5.4045,5.4061,5.4077,5.4232,5.4126,5.4134,5.414,5.4488,5.4492,5.4497,0,0,0,0,0,0,5.3554,5.3582,5.3818,5.3712,5.3742,5.3802,5.3866,5.3874,5.3914,5.3978,5.3987,5.3929,5.4043,5.4064,5.418,5.4237,5.4139,5.4147,5.4483,5.4489,5.4495,5.4541,0,0,0,0,0,0,5.3545,5.358,5.3631,5.3714,5.3748,5.3921,5.3869,5.3879,5.3931,5.3928,5.4009,5.4019,5.4042,5.4166,5.4189,5.4248,5.4155,5.4478,5.4486,5.4493,5.4535,5.4548,5.4559,0,0,0,0,0,5.3534,5.3636,5.3633,5.3662,5.3813,5.3924,5.3943,5.397,5.3936,5.3986,5.4027,5.4017,5.4227,5.4178,5.4204,5.4267,5.4475,5.4484,5.4492,5.4529,5.4545,5.4559,0,0,0,0,0,0,5.3555,5.3647,5.3645,5.3777,5.3843,5.3922,5.3987,5.3986,5.406,5.4054,5.4081,5.4099,5.4215,5.4252,5.4195,5.4394,5.4346,5.436,5.4366,5.4381,5.4393,5.4382,5.4162,0,0,0,0,0,5.3575,5.3661,5.3735,5.3844,5.3878,5.3927,5.3976,5.3991,5.4059,5.4086,5.4135,5.4199,5.428,5.4332,5.441,5.454,5.4557,5.4596,5.4608,5.4618,5.463,5.4701,5.4719,5.4525,5.4525,5.4525,0,0,5.3618,5.3678,5.373,5.385,5.3903,5.3989,5.395,5.4042,5.4105,5.4099,5.4212,5.425,5.4323,5.4447,5.4503,5.4481,5.4687,5.4629,5.4636,5.4643,5.4712,5.473,5.4746,5.4531,5.453,5.4529,0,0,5.3739,5.3794,5.3892,5.3946,5.4027,5.4059,5.4082,5.4162,5.4188,5.4302,5.4299,5.4373,5.4511,5.4564,5.4609,5.475,5.4743,5.4774,5.4837,5.4906,5.4922,5.4935,5.4986,5.5003,5.4785,5.4786,5.4786,0,5.3781,5.3912,5.3941,5.4035,5.4087,5.4088,5.4185,5.4235,5.4337,5.4372,5.4346,5.452,5.4569,5.4705,5.474,5.4776,5.4802,5.4765,5.4918,5.4932,5.4945,5.4993,5.5012,5.4789,5.4789,5.4788,5.4788,0,5.396,5.4051,5.4119,5.422,5.428,5.4375,5.4415,5.4472,5.4481,5.4515,5.463,5.4689,5.4779,5.4812,5.4821,5.4949,5.4933,5.4912,5.4865,5.4966,5.5012,5.503,5.4794,5.4792,5.4792,5.4791,0,0,5.4099,5.4216,5.424,5.4286,5.4376,5.4445,5.4539,5.463,5.4678,5.4747,5.4825,5.4942,5.4924,5.4975,5.4989,5.505,5.5158,5.5021,5.5024,5.5045,5.5302,5.5318,5.5339,5.5153,5.5157,5.516,5.5296,0,5.423,5.4401,5.4429,5.4577,5.4661,5.4662,5.4744,5.4806,5.484,5.4914,5.4949,5.5032,5.5002,5.5032,5.5092,5.5132,5.521,5.5122,5.5225,5.5228,5.5208,5.5363,5.538,5.5505,5.5314,5.5317,5.5319,0,5.4406,5.4483,5.4641,5.472,5.4755,5.4829,5.4914,5.4985,5.5055,5.5075,5.5132,5.5139,5.5234,5.5183,5.5313,5.5253,5.5297,5.5322,5.5328,5.5339,5.528,5.5378,5.5546,5.5565,5.5348,5.5345,5.5343,0,5.4493,5.4635,5.4748,5.4787,5.4882,5.4933,5.4974,5.5041,5.5094,5.5167,5.5201,5.5283,5.5328,5.539,5.5419,5.5379,5.5547,5.5498,5.5565,5.5565,5.5601,5.5599,5.5779,5.5628,5.5628,5.5627,5.5627,0,5.4636,5.4732,5.4789,5.4858,5.4965,5.4995,5.51,5.5139,5.5198,5.5274,5.5279,5.5348,5.5382,5.5456,5.5478,5.5583,5.5602,5.562,5.5625,5.562,5.5618,5.5649,5.5641,5.5632,5.5631,5.563,5.5629,0,5.4752,5.4793,5.4917,5.4996,5.5019,5.5094,5.5161,5.5227,5.526,5.5355,5.5379,5.543,5.5518,5.5553,5.5659,5.5674,5.5794,5.5792,5.5772,5.5773,5.5839,5.5832,5.6046,5.6075,5.5905,5.5906,5.5908,0,5.4841,5.4916,5.5004,5.5057,5.51,5.5184,5.5238,5.527,5.5325,5.5411,5.5466,5.5555,5.5627,5.5766,5.5811,5.5892,5.5892,5.5961,5.5904,5.5897,5.5894,5.5889,5.5897,5.5972,5.5974,5.5975,5.5976,0,5.4995,5.5012,5.5092,5.518,5.5245,5.5314,5.5382,5.5423,5.5464,5.5526,5.5618,5.5674,5.5784,5.5871,5.5955,5.5994,5.5992,5.5994,5.6014,5.601,5.5996,5.6005,5.5801,5.5989,5.5988,5.5987,5.5986,5.5985,5.5101,5.5167,5.5241,5.5329,5.5383,5.5446,5.5513,5.5555,5.5633,5.5727,5.574,5.5837,5.5904,5.6016,5.6059,5.6134,5.6116,5.6145,5.6152,5.6159,5.6164,5.5983,5.6149,5.6149,5.6149,5.6148,5.6148,0,5.5256,5.5303,5.5384,5.548,5.5549,5.5544,5.5617,5.5675,5.5762,5.5826,5.5898,5.6002,5.6086,5.6138,5.6222,5.6272,5.6273,5.6293,5.629,5.6299,5.6175,5.615,5.6291,5.6291,5.6291,5.6291,5.6291,5.6291,5.5344,5.5457,5.5483,5.5621,5.5667,5.5765,5.5808,5.5865,5.5917,5.6034,5.6106,5.614,5.6198,5.6287,5.6363,5.6376,5.6407,5.6428,5.644,5.6323,5.6308,5.6294,5.627,5.6435,5.6435,5.6558,5.6559,5.656]}]]